Wind_Speed
3 3 3 4 4 5 2 6 3 5 2 3 7 5 7 2 3 4 2 16 8 31 30 29 26 25 23 22 22 21 20 18 18 17 16 16 16 16 16 16 17 17 16 15 14 12 11 11 11
6 4 4 2 4 3 4 5 5 3 3 5 7 2 4 3 2 4 5 16 23 29 28 28 26 24 23 22 20 20 18 17 16 15 14 14 14 15 15 15 15 15 14 13 12 10 9 10 11
4 3 4 4 3 1 4 4 4 6 6 5 4 4 2 2 2 9 8 20 24 27 26 24 24 23 23 21 20 19 17 16 15 15 14 14 13 13 14 13 13 12 11 10 10 8 8 10 11
3 5 4 4 3 6 5 9 3 7 3 4 2 5 2 3 4 8 17 17 22 22 21 20 20 20 21 20 19 17 16 15 14 13 13 12 12 13 13 12 12 11 10 9 9 8 8 9 11
5 3 4 3 4 6 7 9 3 4 1 1 1 1 3 4 13 20 15 15 19 20 18 16 16 17 18 18 17 16 15 14 13 13 13 13 13 13 12 12 12 11 11 11 10 9 8 9 11
4 3 5 1 4 6 8 7 1 3 2 4 5 4 2 3 20 19 15 15 16 18 18 17 17 16 16 17 16 15 14 13 13 13 13 14 14 14 14 13 13 12 12 12 12 11 10 10 12
5 4 3 3 4 6 4 9 6 4 1 2 8 4 1 6 13 17 17 16 18 18 17 16 14 13 14 15 16 15 14 14 13 13 14 15 15 15 15 15 15 15 14 14 14 13 13 13 13
5 4 0 2 3 6 7 9 3 3 2 2 2 5 5 4 16 18 16 14 13 11 11 12 11 13 14 14 14 14 14 13 13 13 14 15 16 16 17 18 18 18 18 18 17 17 16 15 14
4 4 2 3 2 6 5 9 5 3 2 4 8 3 4 20 24 27 25 20 16 9 4 5 7 8 11 14 13 13 13 13 13 13 13 14 16 18 19 21 21 22 21 20 20 20 18 18 17
4 4 6 5 2 6 10 2 8 5 6 5 3 8 18 24 26 23 19 19 23 19 9 4 6 4 6 9 10 12 12 13 12 12 12 14 15 18 20 20 22 23 24 24 23 23 21 21 22
4 5 5 6 7 6 5 7 5 3 3 5 8 5 8 20 19 24 22 22 23 22 22 18 10 5 0 4 7 11 11 12 11 12 12 12 15 16 17 20 22 24 25 27 27 27 26 27 27
1 7 5 6 3 1 4 5 4 5 4 9 11 8 7 13 12 18 21 24 24 24 23 21 19 14 12 7 4 5 8 10 10 11 12 14 16 16 16 20 22 25 27 29 30 32 33 33 33
4 5 3 6 8 7 4 7 6 6 8 13 10 10 11 13 17 21 26 24 25 27 25 23 21 23 26 25 26 22 20 16 15 9 11 8 13 15 18 18 21 23 27 28 31 33 36 38 39
2 5 7 7 7 6 6 6 7 2 10 13 13 9 10 14 16 18 21 24 26 26 26 25 25 23 24 27 26 25 23 21 23 22 22 21 18 20 18 15 15 14 18 24 29 32 35 35 39
2 6 9 8 4 5 8 6 9 9 13 14 12 11 11 8 15 16 22 25 24 25 25 26 24 22 23 24 24 23 21 19 19 20 17 21 20 19 19 19 19 20 20 19 22 30 33 34 32
5 2 3 5 3 5 4 10 13 17 16 12 11 9 10 7 12 21 24 27 25 24 26 25 22 22 22 22 22 22 20 19 19 19 18 20 22 22 21 20 20 21 21 20 18 20 27 32 33
3 3 3 8 2 2 2 8 6 3 15 16 13 12 10 9 6 16 24 26 25 26 25 25 22 21 20 20 21 22 23 22 21 20 20 21 21 22 23 23 23 24 25 24 23 23 22 25 28
4 3 4 6 5 1 4 9 6 5 14 14 10 9 9 9 7 18 25 24 25 25 24 22 20 17 16 17 19 20 20 20 19 21 21 22 25 25 25 25 25 25 25 24 24 24 26 25 25
3 5 5 7 6 3 3 5 9 7 9 10 11 12 11 11 12 20 22 23 24 23 22 20 16 14 13 17 21 24 22 19 18 20 22 26 29 28 25 23 23 24 25 25 25 25 25 26 25
8 8 10 7 5 1 5 10 8 6 6 17 17 12 11 7 6 11 19 20 20 20 17 15 14 12 14 16 17 17 15 14 16 22 24 28 30 29 25 23 25 26 26 26 26 27 25 20 20
10 8 5 6 4 2 0 6 3 1 3 7 7 10 10 14 12 8 14 20 19 17 13 11 11 11 11 12 15 17 15 17 16 26 30 31 30 25 20 24 25 23 25 25 24 24 22 20 20
8 6 5 3 2 3 3 4 7 2 3 5 9 10 12 12 8 6 11 16 17 16 13 10 8 7 7 10 12 13 13 11 20 27 30 32 30 24 18 20 24 22 21 21 18 18 17 17 16
8 6 4 3 2 2 3 3 7 3 4 6 7 8 8 8 9 10 13 19 15 14 14 10 7 6 4 5 9 12 15 19 24 28 30 32 30 24 19 21 22 19 19 16 14 17 20 20 19
0 2 5 4 3 1 4 2 5 4 2 2 5 9 11 8 7 9 17 16 14 12 10 8 7 6 3 4 8 12 17 22 24 24 24 27 27 26 24 22 17 18 19 15 16 20 18 19 21
3 5 3 4 2 5 2 2 8 6 5 8 16 13 10 8 9 10 9 14 15 14 11 7 4 5 3 2 7 12 17 19 17 17 19 23 25 26 23 20 19 20 19 17 15 16 18 18 19
3 5 5 5 4 5 5 5 5 4 9 4 9 11 10 9 12 12 13 17 19 15 9 11 12 10 4 3 9 15 20 19 15 14 15 15 19 22 22 20 17 18 17 18 17 18 18 18 20
3 2 4 3 3 2 4 5 5 2 4 2 7 11 10 8 10 12 13 17 17 14 13 13 14 8 3 6 12 16 16 11 9 10 10 10 9 12 14 14 16 17 17 16 17 18 18 17 18
3 2 2 3 2 5 4 5 6 5 7 7 8 12 8 8 5 4 7 12 12 13 13 15 12 7 3 7 11 14 16 13 11 11 11 10 8 10 11 13 17 19 20 19 17 15 14 17 18
3 2 5 3 4 4 5 5 5 6 9 12 15 12 9 9 8 8 11 15 14 16 16 14 11 5 5 9 13 15 15 13 12 12 11 10 9 12 13 17 21 24 22 20 14 15 17 19 21
4 2 5 4 3 4 4 6 10 10 6 9 11 11 8 11 9 8 14 15 12 14 15 13 8 6 8 10 11 14 15 15 13 12 13 9 10 9 14 17 21 23 17 18 16 18 18 19 21
Wind_Direction
109 76 24 23 47 63 234 270 274 300 299 177 140 167 190 136 148 183 201 187 175 165 168 169 171 170 169 167 166 164 160 155 151 149 148 146 150 151 155 158 159 161 161 160 158 156 150 144 138
115 76 39 67 74 28 280 265 276 255 310 108 95 171 36 44 110 122 124 160 165 164 168 172 175 175 175 174 172 171 169 163 159 156 153 152 155 161 163 165 166 168 169 166 162 158 149 146 144
93 49 77 79 88 215 271 244 267 314 282 226 116 49 71 85 43 140 151 150 162 163 168 174 177 181 181 180 180 178 177 176 172 170 169 168 169 171 171 173 175 178 177 174 170 166 158 154 155
121 21 35 84 245 255 234 284 286 327 296 8 103 72 74 323 147 136 141 149 159 162 168 173 179 185 186 186 187 187 185 187 186 185 187 185 186 186 184 185 185 187 189 191 188 184 177 165 168
56 54 59 44 275 267 247 257 315 283 67 256 291 81 26 18 134 137 139 145 156 161 168 173 181 187 190 193 195 198 198 197 200 201 202 204 203 203 202 201 201 201 201 201 204 201 194 180 183
39 96 56 314 254 274 296 289 263 10 173 129 50 50 329 89 135 145 144 137 157 164 172 178 182 188 193 199 204 207 211 213 215 216 219 221 220 219 216 215 215 215 214 215 215 211 208 200 194
104 79 173 256 279 304 295 319 94 312 8 238 155 109 290 59 143 156 155 153 160 170 177 183 186 193 202 207 211 214 220 224 227 228 228 229 232 234 231 229 227 228 227 228 227 228 222 216 204
105 84 70 255 311 289 326 7 338 115 265 115 159 174 166 137 127 137 141 140 143 157 169 182 193 207 216 220 222 223 224 227 234 236 236 235 235 237 239 237 236 236 235 234 233 235 233 230 222
131 60 286 263 263 280 346 4 295 270 40 34 346 53 62 123 114 109 104 97 95 100 139 179 204 226 232 229 229 234 240 236 235 238 239 241 238 237 237 240 241 241 242 243 243 243 243 241 237
96 126 229 222 295 319 303 300 290 360 7 66 22 34 94 114 111 94 83 74 70 68 75 161 203 229 246 236 237 240 238 249 248 251 255 256 248 244 242 245 247 246 246 247 248 249 248 248 245
150 190 220 257 245 239 268 289 199 231 285 185 171 141 80 94 86 90 82 81 80 74 68 66 94 98 251 242 243 243 250 253 264 262 261 265 266 261 254 256 253 251 249 249 248 247 246 245 244
230 224 216 269 242 194 251 270 231 198 247 154 139 130 111 97 98 103 97 94 89 80 71 70 71 70 56 61 269 262 271 290 296 279 272 271 270 263 264 261 263 260 255 252 252 250 251 249 246
217 270 257 243 272 240 243 240 239 279 120 110 117 104 110 105 102 108 115 114 106 94 85 78 76 73 69 69 69 79 71 68 68 53 38 342 289 280 280 283 279 276 274 268 262 257 254 252 251
258 275 270 266 228 232 209 248 146 130 131 120 123 120 122 123 129 124 121 114 106 101 93 88 83 80 75 68 60 59 57 54 54 50 39 37 30 22 15 360 349 336 312 295 278 263 260 254 253
262 319 330 291 269 249 169 275 223 149 147 140 139 133 122 117 129 127 124 114 112 105 98 87 87 84 83 81 78 72 66 61 55 49 41 34 28 21 18 12 0 352 338 321 308 270 262 259 254
358 41 4 282 290 301 120 267 267 149 143 148 138 127 118 117 131 131 124 114 108 105 97 90 86 79 76 75 72 72 69 66 56 45 34 25 19 12 2 357 350 346 342 343 326 307 276 259 255
359 248 231 308 248 221 149 283 17 73 157 151 146 139 135 133 126 133 125 121 114 107 101 89 82 70 65 63 63 57 50 44 35 26 18 11 3 356 351 347 341 338 337 335 334 328 314 283 259
233 211 249 258 290 252 239 266 318 87 129 144 136 139 141 139 150 142 131 122 113 105 103 94 82 72 66 60 48 41 31 23 18 14 12 6 2 355 349 344 340 339 336 332 324 321 322 321 311
317 286 247 269 276 272 290 297 297 151 118 145 159 161 159 154 164 144 132 125 116 108 103 94 86 72 53 41 31 20 17 19 17 13 5 0 356 353 348 344 339 339 341 336 331 317 313 318 325
257 261 276 276 247 189 288 285 261 141 188 180 165 164 161 155 155 149 138 129 116 108 101 92 80 66 50 36 35 25 27 24 5 360 354 350 347 343 341 340 335 336 332 331 337 335 316 310 323
245 226 236 241 310 271 99 303 305 149 91 151 158 156 159 167 165 159 145 136 129 117 110 92 78 60 38 32 17 20 22 5 346 353 347 344 342 339 332 331 335 330 327 326 326 334 331 310 314
245 217 222 255 5 285 143 273 292 151 114 166 163 167 164 171 168 152 147 144 139 130 126 113 87 61 46 20 18 26 17 4 349 347 344 341 339 336 323 323 331 330 326 323 322 324 320 327 317
245 187 207 254 161 2 300 88 263 81 272 210 190 178 179 173 162 162 167 157 150 145 144 133 116 106 81 42 20 10 3 357 350 348 346 347 346 338 326 326 331 336 338 331 326 327 327 323 305
9 80 50 42 96 28 265 105 272 240 290 175 193 186 181 177 158 160 164 160 157 156 155 148 139 108 88 22 7 0 357 354 352 355 1 359 357 351 345 342 350 348 348 339 316 319 320 318 315
85 74 319 332 353 223 355 3 245 291 260 223 195 185 182 171 166 168 171 177 172 173 181 163 164 165 189 316 347 350 354 353 356 359 359 5 3 1 1 359 353 346 344 338 332 321 318 319 316
191 155 180 228 223 251 335 244 258 263 313 287 170 170 183 179 176 179 185 187 184 181 178 186 183 184 191 340 351 353 351 349 351 359 3 6 358 352 352 347 339 338 339 341 337 330 327 324 319
212 145 174 134 29 34 243 299 293 330 5 71 160 184 201 192 193 192 191 189 185 184 193 191 187 194 218 341 347 345 342 333 336 351 351 349 350 346 337 340 341 344 342 339 340 336 333 331 332
105 116 69 8 278 260 270 263 247 282 243 220 209 207 202 193 209 239 229 211 195 199 193 187 194 211 271 337 340 336 335 324 306 309 316 309 330 332 340 349 347 342 342 343 340 340 345 339 336
351 39 43 103 139 210 284 257 227 249 223 209 218 213 200 199 205 196 212 218 214 194 193 195 203 227 302 326 328 328 326 314 297 293 294 315 315 319 327 332 332 337 334 340 334 338 339 339 337
334 181 168 133 246 231 209 254 255 249 257 218 228 215 200 202 195 204 210 207 209 202 205 210 222 275 299 309 309 312 317 304 290 288 284 298 317 316 315 324 323 332 328 329 322 336 339 340 339
Height
790 791 790 790 818 829 832 817 797 790 778 768 766 775 774 772 776 799 766 768 769 773 776 780 784 786 788 790 792 793 795 796 797 799 801 803 806 808 809 810 811 812 813 814 815 816 817 818 820
790 791 792 802 833 841 829 808 800 788 771 763 766 770 771 776 763 767 767 767 770 773 777 780 783 787 789 792 794 796 797 798 800 802 803 805 807 809 811 813 814 815 816 816 817 819 820 820 821
792 792 802 824 849 840 829 798 786 781 771 770 769 763 766 773 766 765 767 768 771 774 778 781 784 787 790 793 795 797 799 800 802 803 804 806 809 810 812 814 816 817 818 819 820 821 821 822 823
792 796 809 830 830 820 809 790 782 782 771 767 768 775 766 765 765 765 768 770 773 776 779 783 786 790 793 795 797 799 800 802 804 805 807 809 811 812 813 814 816 818 819 821 821 822 824 824 825
794 806 831 834 829 812 797 784 780 781 776 773 767 779 775 767 765 768 771 773 775 779 783 786 789 791 794 796 798 800 801 803 805 806 808 809 811 812 814 815 816 817 819 820 821 823 825 826 826
807 813 839 841 825 806 793 781 776 779 777 773 777 778 776 771 769 772 776 778 781 782 784 787 789 791 794 796 799 801 802 803 805 807 808 810 811 812 813 815 816 818 818 819 820 821 823 825 827
812 825 834 827 822 810 792 777 780 785 781 777 770 786 777 775 776 776 778 781 783 785 786 788 791 793 794 796 798 800 801 803 805 806 808 809 811 813 814 815 816 817 818 819 820 821 821 823 824
809 821 823 824 824 814 787 783 774 778 780 769 770 785 787 778 779 779 782 786 788 789 791 792 793 794 796 798 799 799 800 801 804 805 806 808 810 812 813 814 815 815 816 816 817 818 820 821 823
800 832 839 820 810 802 788 792 777 771 776 774 779 776 776 777 781 782 785 789 791 793 794 795 796 797 798 799 801 803 804 802 802 804 806 807 808 810 811 812 813 813 815 817 817 817 818 820 821
812 833 822 806 798 800 791 791 786 779 780 783 784 781 779 779 780 784 791 795 796 795 796 797 796 798 798 799 801 802 802 805 804 805 806 808 808 808 809 810 811 812 813 814 814 815 816 817 818
806 818 805 795 795 795 793 787 779 780 784 777 786 787 784 782 785 788 795 798 800 801 800 799 796 795 797 798 799 800 802 804 805 806 806 806 808 807 808 808 809 809 810 810 811 811 811 812 813
804 797 795 790 785 789 793 782 780 778 774 769 777 780 782 785 789 790 794 796 798 800 802 801 801 799 798 799 800 801 806 803 806 807 807 808 807 807 806 805 805 805 804 805 806 807 807 807 807
803 793 787 784 785 786 783 784 782 776 773 775 779 782 785 787 792 793 791 793 794 794 798 800 801 801 801 799 801 802 802 803 806 805 804 805 804 805 804 803 803 802 802 801 802 801 801 801 802
792 792 790 782 780 779 780 779 776 775 775 779 782 787 787 787 789 792 794 795 794 795 797 799 800 801 802 802 801 805 807 809 808 806 807 807 806 804 803 800 801 799 799 797 797 796 796 796 795
787 797 789 779 773 772 770 780 778 769 774 782 785 788 790 791 790 791 795 796 798 797 799 801 801 802 800 799 802 807 808 809 810 809 810 807 808 806 804 803 801 799 797 796 794 792 791 790 790
799 797 810 780 774 771 772 790 761 768 773 784 789 794 796 796 795 794 797 798 803 803 802 803 805 806 806 805 806 806 807 807 807 807 808 808 806 807 806 802 801 799 796 794 792 790 788 785 784
810 817 809 796 775 775 780 784 764 764 767 780 786 793 799 802 803 802 800 801 802 801 804 802 805 808 811 810 808 809 810 809 809 809 808 806 805 805 803 802 800 798 795 792 789 786 785 781 778
818 811 804 807 785 777 782 784 771 774 774 781 790 795 800 804 804 805 804 805 805 803 800 801 803 806 808 809 809 808 808 808 809 808 806 805 805 804 802 799 797 794 791 789 787 784 782 781 779
803 805 806 795 782 781 781 782 773 778 785 792 793 795 798 800 802 804 805 805 804 802 802 801 803 807 808 805 805 805 806 806 805 805 805 804 802 800 798 796 793 791 789 788 785 782 779 776 775
802 810 807 790 780 779 783 785 775 780 783 782 788 797 800 803 805 804 804 804 804 802 802 801 804 808 808 807 805 805 804 806 807 805 803 801 799 798 797 795 791 788 785 783 782 779 777 775 774
797 805 801 794 782 780 782 792 776 778 780 784 789 792 798 799 800 802 802 801 800 801 802 802 803 806 808 807 805 804 803 804 802 799 797 796 794 793 791 790 789 786 783 781 780 778 776 773 772
802 780 785 788 794 807 782 816 788 781 787 787 789 792 794 797 799 801 802 801 801 800 801 803 804 806 806 807 806 804 804 803 799 796 793 790 789 787 786 785 784 782 780 778 776 775 774 772 770
788 775 781 784 796 798 787 813 797 789 793 792 793 794 795 797 798 801 801 801 802 801 801 802 804 805 806 806 805 804 803 798 794 792 789 787 785 783 782 781 780 777 776 774 773 772 770 769 768
773 779 792 798 804 820 797 804 804 787 784 788 791 791 792 796 798 799 800 800 800 800 800 800 802 803 804 803 803 802 800 795 791 789 787 786 784 781 778 777 776 775 774 772 771 769 767 766 764
782 798 825 826 824 823 793 805 794 788 782 781 783 788 791 793 795 796 797 797 797 797 798 798 799 801 802 802 800 799 795 792 790 789 786 783 783 782 779 776 774 772 770 769 767 765 763 761 761
788 798 827 827 830 820 799 809 788 786 783 771 777 785 790 792 791 792 793 795 795 795 795 797 798 800 799 798 797 794 791 789 789 788 787 785 784 782 780 777 774 772 770 766 764 762 759 758 756
789 800 792 813 822 834 813 794 785 785 787 785 785 787 790 793 794 792 792 792 794 793 792 794 797 798 796 795 793 792 792 792 790 788 788 787 786 785 783 779 776 772 769 765 760 758 756 753 750
783 785 807 827 828 831 816 803 798 792 790 788 788 786 789 790 795 797 799 796 792 791 792 792 794 795 794 792 792 792 790 788 787 787 788 786 784 782 780 776 774 772 767 761 759 757 754 752 749
798 802 808 811 827 834 831 816 785 779 779 784 781 782 785 788 789 788 791 793 794 789 792 792 792 791 791 789 789 789 789 787 786 786 785 782 780 778 776 774 771 766 764 761 759 755 752 748 744
797 796 807 832 826 828 839 801 771 775 775 777 776 776 780 779 782 784 784 788 791 789 789 789 788 788 789 789 789 788 787 786 785 783 781 779 777 773 771 769 767 765 762 759 758 754 750 746 742